www.pogodaiklimat.ru

Погода и климат >> Архив погоды >> Буркина-Фасо >> Fada N`Gourma


ПОГОДА в Fada N`Gourma

  • Прогноз погоды в Fada N`Gourma
  • Монитор погоды в Fada N`Gourma
  • Климат города

АРХИВ ПОГОДЫ в Fada N`Gourma

Время (UTC), дата Ветер
(напр.,м/с)
 
Видим.   Явления Облачность Т
(С)
Тd
(С)
f
(%)
Тe
(С)
Тes
(С)
Комфортность P
(гПа)
Po
(гПа)
Тmin
(С)
Tmax
(С)
R
(мм)
R24
(мм)
S
(см)
00 10.08 ЮЗ 1 10 км 9/0
[Ac trans Ci sp]
+24.7 +23.7 94 +34 +34 очень
душно
1012.8 978.2
03 10.08 штиль 0 10 км 9/0
[Ac trans Ci sp]
+24.3 +23.3 94 +33 +33 очень
душно
1012.0 977.5
06 10.08 ЮЗ 2 10 км 9/0
[Ci sp]
+23.4 +23.1 98 +33 +33 очень
душно
1011.9 977.2 +23.4 4
09 10.08 Ю 3 10 км 9/5 600 м
[Sc Ac trans Ci sp]
+27.5 +24.7 85 +39 +42 очень
душно
1014.2 979.6
12 10.08 Ю 2 10 км 9/6 600 м
[Cu Sc Ac trans Ci sp]
+29.3 +24.4 75 +41 +47 опасность
перегрева
1012.9 978.3
15 10.08 З 1 10 км 9/4 600 м
[Cb calv Ac trans Ci sp]
+29.4 +24.5 75 +42 +46 опасность
перегрева
1010.9 976.3
18 10.08 З 1 10 км в посл. час гроза 9/1 600 м
[Sc Ac trans Ci sp]
+28.0 +24.2 80 +39 +39 очень
душно
1011.0 976.3 +32.1
00 11.08 штиль 0 10 км 9/0
[Ac trans Ci sp]
+25.1 +24.2 95 +35 +35 очень
душно
1013.0 978.4
03 11.08 штиль 0 10 км 9/1 600 м
[Sc Ac trans Ci sp]
+24.7 +23.1 91 +33 +33 очень
душно
1011.8 977.2
06 11.08 Ю 2 10 км гроза без осадков 9/3 600 м
[Cb cap Ci sp]
+23.3 +22.0 92 +32 +32 очень
душно
1012.2 977.5 +23.3
09 11.08 ЮЗ 2 10 км 9/1 600 м
[Sc Ci sp]
+27.7 +24.6 83 +39 +48 очень
душно
1014.4 979.7
12 11.08 ЮЗ 2 10 км 9/6 600 м
[Cu Sc Ci sp]
+30.6 +24.0 68 +42 +50 опасность
перегрева
1013.1 978.6
15 11.08 З 2 10 км 9/5 600 м
[Cu Sc Ci sp]
+31.8 +23.6 62 +43 +48 опасность
перегрева
1010.9 976.5
18 11.08 ЮЗ 1 10 км 9/1 600 м
[Sc Ci sp]
+30.1 +23.1 66 +40 +40 очень
душно
1010.6 976.0 +32.3
00 12.08 ЮЗ 1 10 км 9/0
[Ac trans Ci sp]
+26.2 +24.4 90 +37 +37 очень
душно
1011.8 977.4
03 12.08 ЮЗ 1 10 км 9/0
[Ac trans Ci sp]
+25.6 +23.9 90 +35 +35 очень
душно
1011.6 977.2
06 12.08 В 4 10 км гроза без осадков 10/10 600 м
[Cb cap]
+24.5 +21.9 85 +31 +31 очень
душно
1013.5 978.9 +24.5
09 12.08 Ю 3 10 км гроза, ливневой дождь 10/1 600 м
[Cb cap Ac As]
+21.2 +20.6 96 +26 +29 душно 1015.2 980.3
12 12.08 СЗ 2 10 км {гроза, дождь} 10/0
[Ac As]
+24.6 +21.8 84 +31 +38 очень
душно
1011.9 977.2 19
15 12.08 СВ 2 10 км 9/0
[Ac As Ci sp]
+27.7 +22.3 72 +36 +41 очень
душно
1010.5 976.0
18 12.08 В 2 10 км 9/0
[Ac trans Ci sp]
+26.5 +23.6 84 +36 +36 очень
душно
1011.7 977.0 +28.2 19
00 13.08 штиль 0 10 км 9/0
[Ac As]
+23.9 +22.3 91 +31 +31 очень
душно
1011.8 977.0
03 13.08 ЮЗ 1 10 км 9/0
[Ac As]
+24.4 +23.5 95 +33 +33 очень
душно
1011.2 976.5
06 13.08 штиль 0 10 км 9/0
[Ac trans Ci sp]
+24.2 +23.2 94 +32 +32 очень
душно
1010.6 975.9 +23.9 19
09 13.08 Ю 1 10 км 9/1 600 м
[Sc Ac trans Ci sp]
+27.4 +23.1 77 +37 +43 очень
душно
1011.3 976.6
12 13.08 Ю 2 10 км 9/1 600 м
[Sc Ac trans Ci sp]
+29.3 +23.9 73 +41 +52 опасность
перегрева
1010.8 976.2
15 13.08 ЮЗ 3 10 км 9/4
[Sc Ac trans Ci sp]
+30.9 +25.1 71 +44 +48 опасность
перегрева
1008.5 974.2
18 13.08 Ю 1 10 км 9/1 600 м
[Sc Ci sp]
+29.4 +24.3 74 +41 +41 опасность
перегрева
1008.5 974.0 +31.4
00 14.08 ЮЗ 2 10 км 9/0
[Ci sp]
+26.2 +23.9 87 +36 +36 очень
душно
1010.0 975.6
03 14.08 ЮЗ 1 10 км 9/0
[Ci sp]
+25.2 +23.8 92 +34 +34 очень
душно
1008.9 974.6
06 14.08 Ю 1 10 км 9/5 600 м
[Sc Ci sp]
+24.7 +23.4 92 +33 +33 очень
душно
1010.2 975.7 +24.7
09 14.08 Ю 3 10 км гроза, ливневой дождь 10/1 1200 м
[Cb cap Ac As]
+21.0 +20.5 97 +27 +29 душно 1013.7 978.7
12 14.08 ЮВ 1 10 км {гроза, дождь} 9/1 600 м
[Sc Ac trans Ci sp]
+24.4 +22.4 89 +32 +45 очень
душно
1010.8 976.0 40
15 14.08 Ю 2 10 км 9/0
[Ac trans Ci sp]
+27.7 +22.8 75 +37 +42 очень
душно
1009.6 975.0
03 15.08 ЮЗ 3 10 км 9/0
[Ac As Ci sp]
+23.4 +22.5 95 +32 +32 очень
душно
1011.0 976.3
09 15.08 Ю 2 10 км 9/1 600 м
[Sc Ac trans Ci sp]
+26.1 +22.9 83 +35 +41 очень
душно
1013.2 978.5
15 15.08 Ю 1 10 км 9/4 600 м
[Cu Sc Ac trans Ci sp]
+30.0 +23.5 68 +41 +45 опасность
перегрева
1010.6 976.0
03 16.08 ЮЗ 2 10 км 9/0
[Ac trans Ci sp]
+24.9 +23.3 91 +33 +33 очень
душно
1010.8 976.4
06 16.08 ЮЗ 2 10 км 9/0
[Ci sp]
+24.0 +23.1 95 +32 +32 очень
душно
1011.2 976.6 +24.0
09 16.08 ЮЗ 5 10 км 9/0
[Ci sp]
+27.3 +22.7 76 +36 +41 очень
душно
1011.9 977.3
12 16.08 З 6 10 км 9/1 600 м
[Sc Ci sp]
+30.4 +23.8 68 +42 +48 опасность
перегрева
1011.1 976.7
15 16.08 З 2 10 км 9/3 600 м
[Cu Sc Ci sp]
+31.8 +24.1 64 +44 +50 опасность
перегрева
1009.1 974.8
18 16.08 ЮЗ 1 10 км 9/0
[Ci sp]
+30.0 +24.8 74 +43 +43 опасность
перегрева
1008.7 974.3 +32.3

 

Местоположение метеостанции Fada N`Gourma (Буркина-Фасо): широта 12.03 долгота 0.37 высота над уровнем моря 309 м.

В архиве по умолчанию представлена погода в Fada N`Gourma за последнюю неделю. Архивные данные за месяц целиком и за предыдущие месяцы, начиная с января 2011 года, Вы можете получить, выбрав интересующий диапазон дат из раскрывающегося списка и нажав кнопку "Ввод!".

Внимание! Время в таблицах - всемирное. Для получения местного времени необходимо прибавить поправку, которая в Fada N`Gourma равна 0 ч.

Смотрите также архив погоды в соседних городах и на ближайших метеорологических станциях:

Погода в Dapaon (Того) (129 км)
Погода в Mango (Того) (185 км)
Погода в Po (Буркина-Фасо) (192 км)
Погода в Navrongo (Гана) (204 км)
Погода в Ouagadougou (Буркина-Фасо) (209 км)
Погода в Natitingou (Бенин) (220 км)
Погода в Dori (Буркина-Фасо) (227 км)
Погода в Niamey-Aero (Нигер) (253 км)
Погода в Niamtougou (Того) (264 км)
Погода в Tillabery (Нигер) (268 км)

Пояснения к столбцам:

Ветер - указаны скорость ветра в м/с - средняя за 10 мин, порывы в срок и между сроками (в фигурных скобках) и направление, откуда дует ветер: С - северный, СВ - северо-восточный, В - восточный, ЮВ - юго-восточный, Ю - южный, ЮЗ - юго-западный, З - западный, СЗ - северо-западный.
Видимость - горизонтальная дальность видимости в метрах или километрах. При видимости от 1 до 10 км при отсутствии осадков обычно наблюдается дымка, при ухудшении видимости до 1 км и менее - туман. В сухую погоду видимость может ухудшаться дымом, пылью или мглою.
Явления - указаны атмосферные явления, наблюдавшиеся в срок или в последний час перед сроком; фигурными скобками обозначены явления, наблюдавшиеся между сроками (за 1-3 часа до срока); квадратными скобками обозначены град или гололедные отложения с указанием их диаметра в мм.
Облачность - указаны через наклонную черту общая и нижняя облачность в баллах и высота нижней границы облаков в метрах; квадратными скобками обозначены формы облаков: Ci - перистые, Cs - перисто-слоистые, Cc - перисто-кучевые, Ac - высококучевые, As - высокослоистые, Sc - слоисто-кучевые, Ns - слоисто-дождевые, Cu - кучевые, Cb - кучево-дождевые. Подробнее классификацию облаков см. в Атласе облаков (PDF).
T - Температура воздуха - температура, измеренная на высоте 2 м над землей.
Td - Температура точки росы - температура, при понижении до которой содержащийся в воздухе водяной пар достигнет насыщения.
f - Относительная влажность воздуха - влажноcть воздуха, измеренная на высоте 2 м над землей.
Te - Эффективная температура - температура, которую ощущает одетый по сезону человек в тени. Характеристика душности погоды. При расчете учитывается влияние влажности воздуха и скорости ветра на теплоощущения человека.
Tes - Эффективная температура на солнце - температура, которую ощущает человек, с поправкой на солнечный нагрев. Характеристика знойности погоды. Зависит от высоты солнца над горизонтом, облачности и скорости ветра. Ночью, в пасмурную погоду, а также при ветре 12 м/с и более поправка равна нулю.
P - Атмосферное давление - приведенное к уровню моря атмосферное давление.
Po - Атмосферное давление - измеренное на уровне метеостанции атмосферное давление.
Tmin - Минимальная температура - минимум температуры воздуха на высоте 2 м над землей.
Tmax - Максимальная температура - максимум температуры воздуха на высоте 2 м над землей.
R - Количество осадков - Количество выпавших осадков за период времени, мм. При наведении курсора мыши на число - период времени, за который выпало указанное количество осадков.
R24 - Количество осадков - Количество выпавших осадков за 24 часа, мм.
S - Снежный покров - Высота снежного покрова, см. При наведении курсора мыши на число - состояние снежного покрова и степень покрытия местности в баллах.